Location: Augirein
(42.9320°N, 0.9181°E)
Time: 18:47:04
(UTC+00:00)

Cosmos 2263 - Pass Details

Date: 20 June 2021
Orbit: 831 x 865 km, 70.9° (Epoch: 30 July)

Event Time Altitude Azimuth Distance (km) Brightness Sun altitude
Rises 00:41:45 0° 337° (NNW) 3,422 8.2 -22.9°
Reaches altitude 10° 00:44:14 10° 340° (NNW) 2,477 7.4 -22.8°
Maximum altitude 00:49:54 66° 63° (ENE) 919 4.4 -22.6°
Enters shadow 00:52:43 30° 136° (SE) 1,472 5.2 -22.4°
